This is the latest recevied weather packets stored in our database for station/object K0CVS. If no packets are shown the sender has not sent any weather packets the latest 10 day(s).
| Time | Temp. | Humidity | Pressure | Rain* | Wind** | Luminosity | Snow |
|---|---|---|---|---|---|---|---|
| 1777659703 | 18.33° C | 31% | 1018.9 hPa | 0 mm | - | 781 W/m² | - |
| 1777659400 | 18.33° C | 33% | 1018.7 hPa | 0 mm | - | 780 W/m² | - |
| 1777659097 | 18.89° C | 33% | 1018.9 hPa | 0 mm | - | 789 W/m² | - |
| 1777658796 | 18.89° C | 31% | 1019 hPa | 0 mm | - | 796 W/m² | - |
| 1777658491 | 18.33° C | 33% | 1018.7 hPa | 0 mm | - | 775 W/m² | - |
| 1777658188 | 18.33° C | 36% | 1019 hPa | 0 mm | - | 764 W/m² | - |
| 1777657885 | 18.33° C | 33% | 1018.8 hPa | 0 mm | - | 755 W/m² | - |
| 1777657582 | 17.78° C | 34% | 1019 hPa | 0 mm | - | 746 W/m² | - |
| 1777657280 | 18.33° C | 31% | 1019.2 hPa | 0 mm | - | 752 W/m² | - |
| 1777656977 | 17.78° C | 33% | 1019 hPa | 0 mm | - | 597 W/m² | - |
| 1777656674 | 17.78° C | 30% | 1019.1 hPa | 0 mm | - | 743 W/m² | - |
| 1777656369 | 17.78° C | 34% | 1019.1 hPa | 0 mm | - | 740 W/m² | - |
| 1777656064 | 17.78° C | 33% | 1019.3 hPa | 0 mm | - | 731 W/m² | - |
| 1777655761 | 17.78° C | 33% | 1019.2 hPa | 0 mm | - | 726 W/m² | - |
| 1777655458 | 17.22° C | 35% | 1019.3 hPa | 0 mm | - | 724 W/m² | - |
| 1777655155 | 17.22° C | 31% | 1019.3 hPa | 0 mm | - | 717 W/m² | - |
| 1777654851 | 17.22° C | 34% | 1019.4 hPa | 0 mm | - | 713 W/m² | - |
| 1777654549 | 17.78° C | 32% | 1019.3 hPa | 0 mm | - | 702 W/m² | - |
| 1777654246 | 17.22° C | 32% | 1019.4 hPa | 0 mm | - | 701 W/m² | - |
| 1777653944 | 17.22° C | 36% | 1019.3 hPa | 0 mm | - | 693 W/m² | - |
| 1777653640 | 16.67° C | 35% | 1019.3 hPa | 0 mm | - | 681 W/m² | - |
| 1777653337 | 16.67° C | 37% | 1019.3 hPa | 0 mm | - | 667 W/m² | - |
| 1777653034 | 16.67° C | 36% | 1019.2 hPa | 0 mm | - | 662 W/m² | - |
| 1777652731 | 16.11° C | 36% | 1019.2 hPa | 0 mm | - | 653 W/m² | - |
| 1777652427 | 15.56° C | 37% | 1019.2 hPa | 0 mm | - | 648 W/m² | - |
* Rain latest hour (hover to see other rain measurements)
** Current wind speed in m/s (hover to see current wind gust speed)